Location: Abrams Village
(46.4560°N, 64.0811°W)
Time: 04:50:47
(UTC+00:00)

Cosmos 2221 - Visible Passes

Search period start: 06 June 2026 00:00
Search period end: 16 June 2026 00:00
Orbit: 569 x 586 km, 82.5° (Epoch: 5 June)

Date Brightness Start Highest point End Pass type
(mag) Time Alt. Az. Time Alt. Az. Time Alt. Az.
6 Jun 3.3 01:05:43 10° SSW 01:09:49 52° WNW 01:13:59 10° N visible
7 Jun 3.9 01:10:16 10° SW 01:14:14 39° WNW 01:18:13 10° N visible
8 Jun 4.5 01:14:56 10° SW 01:18:39 30° WNW 01:22:24 10° N visible
9 Jun 5.0 01:19:43 10° SW 01:23:05 23° WNW 01:26:29 10° NNW visible
10 Jun 5.3 01:24:39 10° WSW 01:27:33 18° WNW 01:30:28 10° NNW visible
11 Jun 5.5 01:29:50 10° W 01:32:02 14° WNW 01:34:14 10° NW visible
12 Jun 5.9 01:35:42 10° WNW 01:36:32 10° WNW 01:37:23 10° NW visible
